Location: Blankensee
(53.5126°N, 14.3055°E)
Time: 18:52:58
(UTC+00:00)

Cosmos 1758 - Pass Details

Date: 08 August 2020
Orbit: 540 x 562 km, 82.5° (Epoch: 20 September)

Event Time Altitude Azimuth Distance (km) Brightness Sun altitude
Exits shadow 01:33:14 11° 166° (SSE) 1,779 5.5 -13.8°
Maximum altitude 01:36:56 45° 94° (E) 768 4.3 -13.5°
Drops below altitude 10° 01:40:48 10° 22° (NNE) 1,838 7.3 -13.2°
Sets 01:43:01 0° 16° (NNE) 2,733 8.3 -13.0°
